Dewpoint
-12 -10 -8 -9 -10 -9 -9 -9 -9 -11 -12 -10 -8 -8 -9 -10 -10 -11 -12 -13 -13 -15 -16 -17 -18 -16 -7 -5 -6 -6 -5 -5 5 10 10 11 10 9 8 7 6 7 8 10
-11 -8 -9 -11 -10 -9 -9 -8 -9 -10 -9 -7 -6 -6 -8 -9 -10 -11 -11 -12 -14 -15 -16 -17 -19 -18 -11 -12 -8 -6 -5 -5 -5 2 6 9 9 10 9 9 9 10 11 11
-10 -8 -9 -9 -9 -9 -10 -8 -8 -5 -7 -9 -8 -7 -9 -10 -11 -10 -10 -11 -13 -12 -14 -18 -19 -20 -19 -9 -13 -11 -7 -4 -5 -5 2 11 12 12 11 11 11 10 12 12
-8 -8 -8 -8 -9 -9 -6 -8 -7 -7 -6 -3 -6 -1 -4 -7 -8 -10 -11 -11 -12 -12 -15 -17 -17 -18 -17 -15 -12 -15 -13 -4 -4 -4 1 5 6 9 6 5 9 11 13 14
-8 -7 -7 -7 -8 -9 -8 -8 -7 -6 -4 -4 -3 -1 -4 -7 -7 -9 -10 -11 -12 -14 -17 -18 -19 -17 -19 -17 -14 -13 -10 -2 -4 -3 -3 -2 6 9 8 8 9 12 13 14
-8 -9 -9 -8 -9 -9 -8 -6 -5 -3 -2 1 -2 -1 -3 -5 -7 -8 -10 -11 -12 -14 -16 -17 -18 -18 -17 -9 -5 -8 -6 -0 0 -2 -2 2 7 9 10 9 8 12 13 13
-6 -7 -8 -9 -8 -9 -7 -5 1 1 -0 -1 -5 0 -2 -5 -7 -10 -9 -11 -12 -13 -14 -14 -16 -17 -17 -7 -7 -6 -4 4 6 4 3 5 8 8 9 8 9 10 12 13
-3 -4 -7 -9 -8 -7 -5 1 2 3 1 -0 -1 2 -4 -7 -2 0 -2 -10 -1 9 9 8 5 -2 -11 -8 -5 -1 -3 4 12 11 10 11 11 11 10 9 9 10 11 12
-3 -3 -8 -9 -9 -8 -3 0 -3 3 1 3 -1 -3 -6 -4 4 5 5 6 8 8 8 8 9 9 8 5 1 1 8 11 11 4 7 8 10 9 7 8 11 11 12 12
-6 -3 -8 -7 -7 -5 -3 -5 0 3 3 2 1 -2 -2 -1 4 3 5 5 4 7 8 7 8 9 10 10 11 12 13 13 12 8 8 9 11 9 10 11 12 12 13 12
-7 -4 -5 -7 -5 -6 -4 -2 -2 1 2 4 3 -2 -4 3 4 5 5 5 7 6 7 7 6 7 8 9 9 9 10 12 12 12 12 10 12 12 12 12 12 13 13 12
-6 -4 -2 -6 -7 -7 -6 -5 -3 3 2 1 3 1 2 4 4 5 4 5 6 6 5 5 5 7 8 8 8 8 8 8 9 11 12 12 12 12 12 11 10 12 11 12
-7 -5 -2 -6 -7 -9 -6 -7 -4 3 4 4 5 1 -1 2 3 5 4 4 5 4 4 4 4 6 7 6 7 8 8 9 9 9 9 10 11 11 12 12 11 11 10 12
-5 -3 -6 -4 -5 -4 -3 -5 -2 3 3 3 2 2 4 1 3 4 4 3 2 2 3 3 2 3 6 5 5 7 8 8 9 9 9 9 10 10 11 11 11 10 11 11
-7 -5 -2 -3 -3 -6 -6 -3 1 2 3 3 2 2 3 1 3 4 4 3 3 2 0 1 1 1 2 2 3 5 6 7 8 8 8 9 9 10 10 10 11 11 11 11
-8 -8 -5 -5 -5 -5 -3 1 -0 2 2 -1 -1 -1 0 2 2 4 4 3 2 1 -0 -1 0 -0 -1 -2 -1 2 4 5 6 7 8 8 9 9 10 10 10 10 10 10
-6 -4 -3 -2 -4 -3 3 1 -1 -0 0 1 1 1 1 1 1 -0 2 1 1 -1 -1 -2 -1 -2 -2 -3 -3 -2 2 3 4 5 6 6 7 8 9 9 10 10 10 10
-5 -4 -3 -1 -1 -1 -2 -2 -4 -2 1 -1 0 0 0 0 -1 -1 -2 -2 -3 -3 -4 -3 -2 -2 -3 -3 -3 -3 -2 1 2 3 4 4 5 7 7 8 9 9 9 10
-6 -2 -0 2 2 -1 -0 -3 -2 -1 -1 -2 -0 -0 -0 -0 -1 -2 -3 -3 -3 -4 -5 -5 -5 -4 -4 -4 -4 -3 -3 -2 -0 1 1 3 4 4 5 6 7 8 9 9
-1 -1 -0 1 1 0 -2 -4 -4 -4 -0 -3 -1 -1 -0 -1 -1 -1 -3 -4 -4 -5 -5 -5 -6 -5 -5 -4 -4 -3 -3 -3 -2 -2 -1 0 2 3 4 4 4 5 7 8
-0 -1 0 1 1 -1 -2 -3 -4 1 -3 -2 -2 -1 -1 -1 -2 -3 -4 -4 -4 -5 -5 -5 -6 -5 -5 -5 -5 -4 -4 -3 -3 -3 -2 -1 0 1 2 3 3 3 4 6
-1 -1 -2 -1 -1 -3 -3 -4 -3 -2 -3 -2 -2 -2 -2 -2 -3 -4 -5 -5 -5 -5 -5 -6 -6 -6 -6 -6 -5 -5 -4 -3 -3 -2 -1 -1 -0 0 1 2 2 3 4 4
-3 -3 -3 -3 -3 -2 -3 -3 -4 -3 -3 -3 -3 -2 -3 -3 -4 -4 -5 -6 -6 -6 -6 -7 -7 -7 -6 -6 -5 -5 -4 -3 -3 -2 -2 -1 -1 -0 0 1 2 2 3 3
-6 -2 -2 -2 -3 -2 -3 -4 -3 -4 -3 -3 -3 -3 -3 -4 -4 -5 -6 -7 -7 -7 -7 -7 -7 -7 -7 -6 -5 -5 -5 -4 -3 -3 -3 -2 -2 -1 -1 0 1 2 2 2
-7 -5 -4 -2 -2 -2 -3 -4 -4 -5 -3 -3 -4 -4 -4 -5 -5 -6 -6 -7 -7 -7 -7 -8 -7 -7 -7 -7 -6 -5 -5 -5 -5 -5 -4 -4 -3 -3 -2 -2 -1 -0 0 -0
-5 -5 -5 -5 -3 -4 -2 -3 -5 -5 -4 -3 -4 -5 -5 -5 -6 -7 -7 -8 -8 -8 -8 -8 -8 -8 -8 -7 -7 -7 -6 -5 -5 -5 -5 -5 -5 -5 -4 -4 -4 -4 -4 -2
Wind_Speed
5 7 3 2 1 3 5 6 14 18 11 15 15 23 26 27 29 32 41 41 43 43 49 47 44 38 27 33 36 37 40 42 48 49 47 44 41 37 34 33 34 32 31 29
6 4 2 2 5 4 5 12 16 21 9 14 18 32 30 25 25 31 35 40 35 40 44 43 46 44 36 29 31 37 39 44 47 52 50 50 45 41 36 34 34 31 32 31
5 3 2 5 5 7 4 7 12 13 26 25 20 24 25 31 30 38 40 41 46 42 42 44 48 48 43 42 32 27 29 44 51 50 51 53 48 42 35 34 34 34 34 31
4 1 6 4 2 7 10 6 11 19 17 13 18 17 30 29 25 25 33 37 40 40 37 41 44 46 41 42 37 32 32 38 47 54 56 54 53 49 46 41 38 36 34 32
1 4 6 1 2 13 9 9 13 23 19 16 32 4 13 20 27 27 25 33 31 37 33 39 43 44 35 32 23 28 31 38 46 53 54 52 52 52 48 43 39 37 34 34
4 5 2 2 4 4 8 11 22 8 1 4 11 5 19 22 18 22 21 26 33 34 32 37 36 36 28 25 35 31 31 33 46 50 50 51 52 52 47 42 40 38 36 34
4 3 4 3 10 3 9 12 5 5 3 9 13 15 12 23 23 22 21 24 31 33 33 27 29 32 35 36 35 43 29 29 39 44 47 48 47 48 47 43 38 35 35 37
3 5 3 5 1 4 4 3 2 6 9 18 20 5 9 17 22 29 25 26 14 10 8 10 19 24 35 33 34 34 24 27 34 36 40 43 45 39 36 36 34 28 30 32
2 3 2 4 2 4 3 1 8 7 13 9 5 8 9 14 22 27 30 38 6 14 15 14 15 18 24 23 25 24 21 28 29 28 30 31 31 31 30 29 29 25 21 25
1 3 1 4 3 4 4 4 5 4 6 9 7 12 9 19 18 22 26 30 23 19 18 18 23 28 31 31 28 25 22 24 28 32 32 31 29 28 26 27 26 25 23 23
3 3 4 4 2 6 4 3 3 5 4 5 8 10 8 13 14 15 16 37 27 23 18 13 20 28 28 25 23 21 17 18 17 17 22 25 24 26 27 26 26 26 24 24
1 3 2 7 10 5 4 7 9 4 8 10 8 14 10 17 14 13 17 26 30 25 17 12 21 28 28 28 22 20 16 11 9 10 10 11 13 17 18 23 23 25 24 23
2 1 3 4 6 4 3 12 12 14 8 8 6 6 20 18 18 17 15 17 20 28 22 24 35 33 30 25 21 21 18 16 11 8 7 8 10 9 17 21 24 24 25 25
4 3 7 6 9 4 6 15 16 11 3 10 7 22 14 23 23 16 23 24 28 32 30 26 31 34 33 25 23 20 17 13 11 8 4 5 7 11 12 16 16 19 22 24
3 3 5 7 12 14 15 14 11 10 7 5 19 19 15 24 18 12 12 14 21 23 26 31 27 33 32 24 24 22 18 14 10 6 6 5 6 9 11 15 18 19 26 26
0 3 1 4 10 11 9 5 10 7 6 12 17 14 20 21 28 16 15 20 22 23 22 21 26 30 32 28 26 21 19 17 12 10 7 5 4 6 13 12 16 22 26 20
3 3 1 4 5 10 4 4 8 9 8 9 9 16 16 16 18 28 26 26 26 25 25 27 27 28 28 26 24 23 18 14 12 11 9 7 3 1 4 11 14 16 16 16
5 3 2 4 4 2 3 2 7 12 2 12 11 16 15 9 20 29 31 28 28 26 25 24 23 23 21 22 22 20 17 13 12 11 10 8 6 4 2 4 8 15 16 19
9 3 1 2 2 2 2 1 6 5 3 13 11 14 18 15 12 19 23 22 20 21 20 21 19 18 18 20 20 19 16 16 12 12 11 10 8 6 5 5 6 9 16 20
5 1 3 1 2 4 4 9 15 7 6 16 20 15 13 17 6 5 19 18 19 18 20 22 22 18 17 19 19 19 19 18 18 17 15 13 10 9 7 7 8 8 10 11
2 1 1 2 3 4 3 17 16 3 5 21 17 18 12 5 5 11 15 17 16 17 20 21 21 21 20 19 18 21 20 20 18 17 15 13 12 11 9 9 9 9 9 10
2 1 1 1 1 5 8 4 4 6 12 15 18 18 12 9 10 12 14 15 18 19 20 20 19 19 18 18 17 18 19 17 15 14 14 13 12 12 12 10 9 9 8 8
1 4 3 5 4 1 2 0 6 9 10 12 14 14 13 11 12 15 16 16 17 18 18 17 16 15 16 17 17 17 17 15 15 14 13 13 12 11 11 11 10 9 9 7
2 3 2 0 3 4 5 4 8 8 9 10 10 11 10 11 13 13 15 16 16 18 18 17 15 16 16 16 16 16 15 15 15 14 13 12 12 12 11 9 9 10 9 9
5 2 4 4 1 4 8 7 9 9 9 10 8 9 9 11 12 13 12 15 17 17 17 16 16 16 15 15 15 15 15 15 13 13 13 13 14 14 15 14 13 11 11 11
6 6 4 5 8 4 4 4 7 8 10 8 9 9 9 10 11 12 12 13 16 16 15 14 15 16 16 16 16 14 14 14 14 14 13 13 12 13 15 17 18 14 13 9
Wind_Direction
14 67 61 321 7 235 267 284 300 294 301 298 293 280 286 289 283 280 285 283 284 285 287 289 285 275 267 257 251 244 238 236 236 229 225 224 222 218 220 224 222 218 215 214
23 125 60 96 24 9 325 301 299 289 317 310 309 294 290 287 279 269 268 275 278 283 285 283 283 278 262 266 259 250 244 237 233 231 228 226 226 221 222 221 224 222 219 217
145 70 24 51 331 317 301 275 299 294 312 300 286 286 301 294 286 277 271 268 275 272 277 279 278 279 277 263 268 265 262 242 231 233 228 223 222 219 220 225 226 224 222 219
114 11 16 359 311 348 328 268 303 301 309 299 295 291 298 286 286 283 274 267 264 266 264 273 276 273 272 267 268 275 268 248 233 227 224 224 224 217 221 224 223 222 222 222
307 328 314 32 34 347 274 309 302 297 279 297 284 232 267 294 288 282 282 273 264 267 264 262 266 264 274 271 281 284 274 245 229 222 225 228 223 223 217 218 221 222 222 222
199 278 159 189 328 298 307 341 314 298 225 251 260 241 299 300 295 289 278 269 260 262 272 270 265 264 271 249 248 268 274 240 226 223 226 226 224 222 217 218 222 222 221 220
341 333 340 34 346 335 21 349 319 327 318 283 315 315 279 305 303 299 277 267 260 280 279 275 258 253 252 225 245 254 258 232 224 220 220 223 224 225 218 219 222 221 218 217
52 350 354 336 287 280 340 91 321 301 303 297 305 251 286 314 347 343 322 286 314 17 348 299 256 235 233 223 216 242 235 230 211 213 215 215 219 220 220 224 228 228 225 223
34 275 266 327 327 108 276 321 275 264 260 267 274 282 291 329 4 4 359 355 74 57 44 62 82 118 151 166 191 226 211 208 206 215 221 219 214 214 217 226 229 232 226 223
129 310 258 300 346 56 145 287 320 269 300 302 267 298 295 347 355 8 6 6 16 42 54 53 91 97 101 113 126 144 159 172 184 197 206 206 208 215 219 223 228 228 228 225
123 128 301 6 351 306 346 344 293 268 238 286 302 298 320 351 1 11 7 350 352 31 44 1 77 89 89 93 107 116 126 139 139 164 192 203 210 215 219 222 224 227 228 230
189 161 298 295 286 255 177 323 302 286 281 258 269 285 19 6 8 354 29 360 23 25 39 337 74 86 80 79 82 91 99 111 129 120 146 181 210 219 218 219 225 228 225 227
161 326 340 342 3 356 323 306 308 302 267 301 291 294 344 1 347 360 14 5 27 21 15 22 56 66 68 58 67 76 75 81 97 120 141 175 189 184 216 225 226 221 228 222
146 159 165 195 236 254 302 294 313 315 300 309 314 314 336 346 338 17 21 36 35 41 29 26 41 55 70 52 54 72 72 72 71 79 127 166 188 201 205 208 231 230 226 215
96 210 195 232 256 272 267 289 311 309 345 349 319 316 332 329 320 46 51 59 42 38 29 25 38 49 62 45 45 59 66 70 68 82 94 117 159 207 216 219 227 226 225 221
252 257 236 269 253 253 258 315 307 302 333 338 332 337 341 12 20 4 30 39 51 35 28 26 35 37 45 34 33 37 48 52 50 59 63 78 118 170 177 189 203 218 212 213
201 206 66 271 297 304 150 307 331 309 1 344 349 326 330 15 23 18 33 31 33 32 18 23 33 29 28 22 24 27 29 29 33 44 46 41 34 329 206 200 213 194 216 215
193 166 176 266 296 333 212 214 349 323 330 7 337 343 356 26 20 26 30 32 28 26 21 17 21 22 14 13 20 19 20 19 24 23 21 28 32 19 346 220 221 230 229 210
199 137 234 236 258 223 309 80 347 331 304 9 347 349 353 359 14 23 19 28 27 23 16 16 12 9 3 11 14 16 18 19 19 21 16 7 4 15 4 320 263 239 231 225
150 146 167 281 251 242 224 318 332 289 243 359 350 353 0 8 23 2 0 11 13 13 4 4 6 6 9 14 15 18 22 20 22 18 12 7 2 359 352 338 329 303 271 246
45 13 169 280 251 285 322 318 322 181 290 336 337 343 6 16 15 343 353 2 2 357 356 358 1 8 14 15 19 25 23 24 17 12 10 8 7 359 360 358 338 321 308 280
161 141 223 284 307 281 1 360 62 309 322 324 334 349 357 10 8 1 359 356 354 358 355 358 5 17 25 25 27 27 25 20 17 18 16 14 14 10 1 353 347 344 324 303
264 181 199 185 226 186 87 105 307 309 312 326 329 346 351 355 8 359 357 359 356 357 358 359 8 23 29 30 27 26 23 20 19 22 23 20 21 19 11 357 3 2 2 340
286 177 194 41 231 211 211 297 303 311 304 324 333 339 354 357 359 8 360 359 359 1 360 5 15 28 29 31 26 25 20 22 22 24 27 30 33 34 34 24 23 30 37 37
213 139 188 258 1 161 236 262 312 324 309 319 341 344 348 359 3 8 5 6 6 7 8 17 22 26 27 26 26 26 22 23 23 24 27 33 38 40 46 50 55 53 59 49
194 201 166 228 180 156 167 240 301 321 313 307 328 350 355 344 1 7 8 0 3 7 11 19 24 25 25 21 20 23 24 19 19 23 25 32 43 52 56 61 62 64 67 70
Height
1498 1507 1509 1506 1507 1507 1508 1507 1503 1488 1489 1483 1480 1464 1452 1449 1449 1442 1431 1426 1420 1414 1408 1407 1407 1412 1414 1417 1419 1420 1423 1426 1430 1434 1439 1444 1447 1451 1456 1459 1463 1467 1472 1476
1504 1509 1506 1504 1504 1506 1506 1504 1496 1478 1481 1479 1471 1451 1439 1437 1430 1428 1420 1414 1409 1405 1400 1399 1398 1402 1404 1406 1407 1410 1411 1416 1419 1423 1429 1434 1440 1444 1449 1454 1458 1463 1466 1471
1504 1505 1503 1503 1505 1504 1504 1502 1494 1493 1473 1467 1465 1443 1431 1420 1418 1410 1407 1404 1400 1396 1393 1390 1388 1388 1392 1395 1398 1399 1400 1403 1409 1413 1421 1425 1433 1440 1447 1451 1454 1456 1460 1465
1500 1503 1503 1506 1505 1503 1502 1495 1493 1488 1485 1478 1456 1456 1437 1409 1407 1399 1392 1388 1386 1384 1382 1382 1380 1378 1380 1383 1389 1389 1389 1391 1398 1404 1407 1413 1420 1428 1435 1441 1445 1449 1455 1460
1503 1503 1503 1503 1503 1500 1500 1493 1490 1480 1477 1477 1443 1468 1420 1410 1401 1388 1381 1377 1374 1370 1368 1369 1369 1369 1370 1373 1374 1378 1380 1383 1387 1392 1398 1406 1412 1419 1426 1432 1438 1444 1449 1455
1502 1499 1500 1499 1499 1498 1495 1494 1478 1470 1474 1478 1452 1453 1424 1403 1390 1378 1370 1365 1362 1358 1357 1357 1358 1361 1363 1365 1373 1375 1377 1375 1379 1384 1390 1397 1403 1410 1419 1426 1431 1438 1445 1450
1508 1501 1497 1496 1497 1496 1499 1497 1494 1482 1470 1453 1437 1440 1414 1397 1385 1373 1363 1356 1351 1348 1348 1348 1351 1354 1357 1358 1367 1369 1374 1371 1374 1378 1384 1391 1398 1404 1413 1420 1426 1434 1438 1442
1512 1508 1500 1499 1501 1502 1501 1504 1510 1498 1478 1460 1440 1437 1408 1393 1384 1374 1361 1354 1350 1344 1344 1344 1344 1342 1346 1351 1355 1360 1367 1368 1372 1377 1381 1386 1392 1403 1414 1420 1424 1428 1432 1436
1510 1509 1499 1500 1499 1500 1505 1507 1500 1501 1479 1467 1438 1421 1403 1393 1387 1377 1368 1355 1349 1350 1349 1348 1348 1345 1343 1343 1349 1357 1363 1366 1371 1380 1386 1388 1392 1400 1408 1415 1420 1424 1428 1432
1503 1514 1499 1499 1498 1498 1499 1499 1503 1496 1482 1465 1438 1421 1411 1397 1391 1381 1379 1372 1366 1357 1355 1355 1352 1350 1346 1346 1349 1358 1364 1368 1367 1378 1383 1386 1390 1397 1404 1410 1415 1419 1423 1427
1501 1511 1505 1500 1505 1501 1506 1508 1501 1496 1491 1469 1445 1420 1409 1405 1397 1386 1386 1383 1372 1364 1364 1366 1362 1355 1355 1357 1359 1361 1364 1365 1368 1374 1377 1382 1387 1394 1401 1405 1409 1413 1418 1422
1502 1511 1511 1504 1494 1492 1496 1497 1497 1494 1480 1463 1454 1426 1416 1411 1404 1396 1392 1388 1381 1377 1370 1371 1366 1360 1360 1364 1368 1365 1369 1367 1372 1378 1379 1382 1388 1394 1398 1401 1405 1409 1412 1417
1501 1513 1515 1502 1502 1496 1498 1494 1490 1487 1476 1463 1447 1429 1419 1419 1411 1402 1395 1392 1388 1387 1382 1369 1362 1360 1360 1371 1374 1367 1371 1375 1376 1379 1381 1384 1390 1393 1396 1399 1402 1405 1409 1413
1500 1507 1517 1527 1511 1506 1508 1493 1489 1486 1479 1466 1453 1448 1427 1428 1419 1408 1403 1400 1396 1391 1391 1381 1378 1375 1368 1378 1379 1375 1377 1378 1378 1379 1383 1386 1389 1391 1394 1397 1400 1403 1406 1409
1501 1510 1508 1500 1499 1499 1498 1493 1489 1484 1480 1472 1461 1448 1438 1436 1427 1418 1414 1406 1404 1401 1399 1396 1394 1387 1380 1392 1387 1382 1382 1382 1384 1386 1386 1387 1388 1390 1391 1394 1398 1402 1404 1407
1502 1505 1497 1494 1491 1490 1490 1492 1489 1477 1477 1469 1459 1448 1448 1433 1427 1422 1420 1415 1410 1410 1407 1402 1398 1392 1387 1393 1391 1389 1386 1385 1386 1386 1386 1387 1388 1389 1389 1392 1394 1398 1398 1400
1501 1502 1497 1494 1486 1485 1486 1492 1486 1481 1480 1480 1468 1463 1454 1444 1437 1434 1429 1427 1422 1417 1414 1406 1401 1397 1395 1399 1396 1391 1389 1390 1390 1388 1387 1387 1388 1388 1389 1390 1394 1393 1398 1398
1496 1497 1499 1496 1487 1501 1489 1483 1485 1483 1480 1482 1476 1466 1459 1455 1451 1443 1437 1432 1427 1423 1422 1418 1412 1405 1409 1404 1398 1397 1394 1394 1391 1391 1390 1390 1389 1389 1389 1389 1391 1393 1393 1395
1490 1494 1499 1493 1486 1478 1483 1482 1487 1486 1478 1481 1478 1470 1461 1455 1449 1445 1447 1443 1440 1434 1433 1428 1422 1416 1409 1405 1403 1400 1397 1395 1394 1393 1392 1392 1391 1389 1389 1390 1390 1390 1391 1393
1487 1489 1494 1493 1491 1496 1484 1478 1481 1481 1477 1479 1475 1471 1464 1458 1455 1456 1453 1447 1442 1438 1434 1430 1424 1420 1414 1406 1404 1402 1400 1399 1397 1396 1395 1394 1391 1390 1390 1390 1389 1388 1388 1389
1491 1492 1492 1492 1487 1486 1481 1479 1474 1477 1485 1478 1477 1472 1468 1465 1465 1461 1455 1450 1446 1441 1436 1432 1427 1420 1414 1412 1410 1407 1405 1403 1402 1400 1398 1396 1393 1392 1390 1389 1389 1388 1387 1386
1492 1496 1503 1497 1494 1491 1483 1478 1480 1486 1481 1479 1474 1470 1468 1467 1465 1461 1457 1452 1447 1443 1438 1435 1430 1424 1421 1419 1416 1413 1410 1408 1406 1403 1400 1398 1396 1393 1393 1391 1389 1387 1385 1383
1497 1494 1497 1494 1490 1483 1483 1485 1485 1483 1482 1479 1476 1472 1468 1465 1463 1458 1456 1453 1450 1445 1441 1438 1432 1428 1425 1422 1420 1417 1414 1411 1408 1405 1402 1401 1398 1395 1394 1393 1390 1386 1384 1383
1486 1486 1491 1489 1481 1482 1483 1484 1483 1482 1480 1479 1476 1473 1469 1466 1463 1459 1457 1454 1451 1445 1442 1437 1434 1429 1428 1425 1423 1419 1417 1413 1410 1408 1406 1404 1401 1398 1394 1394 1389 1387 1386 1385
1487 1486 1487 1484 1481 1481 1482 1482 1482 1480 1479 1477 1475 1472 1470 1467 1464 1461 1460 1457 1453 1448 1445 1441 1437 1434 1432 1428 1426 1422 1419 1416 1414 1412 1410 1407 1403 1401 1397 1395 1392 1389 1387 1389
1480 1481 1486 1484 1475 1477 1479 1481 1481 1480 1477 1475 1473 1471 1470 1467 1464 1462 1459 1457 1454 1453 1449 1445 1441 1438 1433 1429 1426 1423 1420 1419 1416 1413 1413 1410 1408 1405 1402 1399 1395 1392 1392 1391